Time,TemperatureF,DewpointF,PressureIn,WindDirection,WindDirectionDegrees,WindSpeedMPH,WindSpeedGustMPH,Humidity,HourlyPrecipIn,Conditions,Clouds,dailyrainin,SoftwareType,DateUTC
2013-03-06 00:00:00,42.1,33.8,29.54,SW,225,11.4,11.4,72,0.00,,,0.53,WUHU216HW,2013-03-06 05:00:00,
2013-03-06 00:05:00,41.9,33.3,29.54,NNW,338,6.9,11.4,71,0.00,,,0.00,WUHU216HW,2013-03-06 05:05:00,
2013-03-06 00:10:00,41.6,31.8,29.54,SW,225,6.7,13.6,68,0.00,,,0.00,WUHU216HW,2013-03-06 05:10:00,
2013-03-06 00:15:00,41.4,31.7,29.55,WSW,248,7.2,13.6,68,0.00,,,0.00,WUHU216HW,2013-03-06 05:15:00,
2013-03-06 00:20:00,41.2,31.1,29.55,WSW,248,6.0,11.9,67,0.00,,,0.00,WUHU216HW,2013-03-06 05:20:00,
2013-03-06 00:25:00,41.2,30.3,29.55,SW,225,9.4,15.0,65,0.00,,,0.00,WUHU216HW,2013-03-06 05:25:00,
2013-03-06 00:30:00,41.0,30.2,29.55,WSW,248,8.5,15.0,65,0.00,,,0.00,WUHU216HW,2013-03-06 05:30:00,
2013-03-06 00:35:00,40.9,29.6,29.55,West,270,10.3,14.1,64,0.00,,,0.00,WUHU216HW,2013-03-06 05:35:00,
2013-03-06 00:40:00,40.7,29.4,29.55,SW,225,5.6,13.4,64,0.00,,,0.00,WUHU216HW,2013-03-06 05:40:00,
2013-03-06 00:45:00,40.5,29.3,29.56,WSW,248,9.2,14.3,64,0.00,,,0.00,WUHU216HW,2013-03-06 05:45:00,
2013-03-06 00:50:00,40.5,28.9,29.56,SW,225,12.5,14.3,63,0.00,,,0.00,WUHU216HW,2013-03-06 05:50:00,
2013-03-06 00:55:00,40.3,28.7,29.56,West,270,8.1,13.4,63,0.00,,,0.00,WUHU216HW,2013-03-06 05:55:00,
2013-03-06 01:00:00,40.3,28.3,29.56,WSW,248,11.4,14.3,62,0.00,,,0.00,WUHU216HW,2013-03-06 06:00:00,
2013-03-06 01:05:00,40.3,28.3,29.57,WSW,248,8.5,14.5,62,0.00,,,0.00,WUHU216HW,2013-03-06 06:05:00,
2013-03-06 01:10:00,40.3,27.9,29.57,WSW,248,9.2,15.9,61,0.00,,,0.00,WUHU216HW,2013-03-06 06:10:00,
2013-03-06 01:15:00,40.1,27.7,29.57,WSW,248,8.5,15.9,61,0.00,,,0.00,WUHU216HW,2013-03-06 06:15:00,
2013-03-06 01:20:00,40.0,27.5,29.57,West,270,8.5,11.9,61,0.00,,,0.00,WUHU216HW,2013-03-06 06:20:00,
2013-03-06 01:25:00,40.0,28.4,29.57,WSW,248,6.3,11.9,63,0.00,,,0.00,WUHU216HW,2013-03-06 06:25:00,
2013-03-06 01:30:00,39.6,28.0,29.57,SW,225,4.0,11.6,63,0.00,,,0.00,WUHU216HW,2013-03-06 06:30:00,
2013-03-06 01:35:00,39.4,27.8,29.57,WSW,248,5.4,12.1,63,0.00,,,0.00,WUHU216HW,2013-03-06 06:35:00,
2013-03-06 01:40:00,39.2,27.2,29.57,SW,225,6.9,14.8,62,0.00,,,0.00,WUHU216HW,2013-03-06 06:40:00,
2013-03-06 01:45:00,39.2,27.2,29.57,SSW,203,5.6,14.8,62,0.00,,,0.00,WUHU216HW,2013-03-06 06:45:00,
2013-03-06 01:50:00,39.1,26.6,29.58,WSW,248,7.8,12.1,61,0.00,,,0.00,WUHU216HW,2013-03-06 06:50:00,
2013-03-06 01:55:00,39.2,26.5,29.58,West,270,7.6,13.6,60,0.00,,,0.00,WUHU216HW,2013-03-06 06:55:00,
2013-03-06 02:00:00,39.2,26.5,29.58,WSW,248,9.4,13.6,60,0.00,,,0.00,WUHU216HW,2013-03-06 07:00:00,
2013-03-06 02:05:00,39.2,26.5,29.58,SSW,203,6.9,12.1,60,0.00,,,0.00,WUHU216HW,2013-03-06 07:05:00,
2013-03-06 02:10:00,39.2,26.0,29.58,WSW,248,7.2,13.6,59,0.00,,,0.00,WUHU216HW,2013-03-06 07:10:00,
2013-03-06 02:15:00,39.2,26.5,29.58,SSW,203,11.6,13.6,60,0.00,,,0.00,WUHU216HW,2013-03-06 07:15:00,
2013-03-06 02:20:00,39.1,26.6,29.57,SSW,203,3.8,11.9,61,0.00,,,0.00,WUHU216HW,2013-03-06 07:20:00,
2013-03-06 02:25:00,38.7,26.7,29.57,SW,225,4.7,11.9,62,0.00,,,0.00,WUHU216HW,2013-03-06 07:25:00,
2013-03-06 02:30:00,38.3,26.8,29.57,SSW,203,2.7,8.5,63,0.00,,,0.00,WUHU216HW,2013-03-06 07:30:00,
2013-03-06 02:35:00,37.8,26.3,29.57,West,270,4.0,6.7,63,0.00,,,0.00,WUHU216HW,2013-03-06 07:35:00,
2013-03-06 02:40:00,37.6,26.6,29.57,SW,225,4.5,7.6,64,0.00,,,0.00,WUHU216HW,2013-03-06 07:40:00,
2013-03-06 02:45:00,37.4,26.4,29.57,SW,225,5.4,10.7,64,0.00,,,0.00,WUHU216HW,2013-03-06 07:45:00,
2013-03-06 02:50:00,37.6,26.1,29.57,WSW,248,6.9,10.7,63,0.00,,,0.00,WUHU216HW,2013-03-06 07:50:00,
2013-03-06 02:55:00,37.8,25.6,29.57,WSW,248,8.9,11.4,61,0.00,,,0.00,WUHU216HW,2013-03-06 07:55:00,
2013-03-06 03:00:00,38.2,25.5,29.57,West,270,5.4,11.9,60,0.00,,,0.00,WUHU216HW,2013-03-06 08:00:00,
2013-03-06 03:05:00,38.2,25.8,29.57,West,270,4.5,11.9,61,0.00,,,0.00,WUHU216HW,2013-03-06 08:05:00,
2013-03-06 03:10:00,37.8,25.6,29.58,WSW,248,5.4,7.6,61,0.00,,,0.00,WUHU216HW,2013-03-06 08:10:00,
2013-03-06 03:15:00,37.6,25.4,29.58,West,270,3.4,6.5,61,0.00,,,0.00,WUHU216HW,2013-03-06 08:15:00,
2013-03-06 03:20:00,37.4,25.2,29.58,NW,315,4.3,8.3,61,0.00,,,0.00,WUHU216HW,2013-03-06 08:20:00,
2013-03-06 03:25:00,37.3,25.5,29.58,SW,225,4.0,8.3,62,0.00,,,0.00,WUHU216HW,2013-03-06 08:25:00,
2013-03-06 03:30:00,37.1,25.3,29.58,WSW,248,3.8,7.8,62,0.00,,,0.00,WUHU216HW,2013-03-06 08:30:00,
2013-03-06 03:35:00,36.7,24.9,29.58,WSW,248,3.8,7.8,62,0.00,,,0.00,WUHU216HW,2013-03-06 08:35:00,
2013-03-06 03:40:00,36.5,25.1,29.58,SW,225,3.6,5.4,63,0.00,,,0.00,WUHU216HW,2013-03-06 08:40:00,
2013-03-06 03:45:00,36.4,24.6,29.58,West,270,1.6,9.4,62,0.00,,,0.00,WUHU216HW,2013-03-06 08:45:00,
2013-03-06 03:50:00,36.4,24.6,29.58,West,270,2.9,9.4,62,0.00,,,0.00,WUHU216HW,2013-03-06 08:50:00,
2013-03-06 03:55:00,36.4,24.6,29.58,WNW,293,3.1,6.3,62,0.00,,,0.00,WUHU216HW,2013-03-06 08:55:00,
2013-03-06 04:00:00,36.4,23.9,29.58,WSW,248,8.5,10.5,60,0.00,,,0.00,WUHU216HW,2013-03-06 09:00:00,
2013-03-06 04:05:00,36.7,24.2,29.59,WSW,248,6.0,10.5,60,0.00,,,0.00,WUHU216HW,2013-03-06 09:05:00,
2013-03-06 04:10:00,36.7,24.2,29.59,WNW,293,4.0,8.1,60,0.00,,,0.00,WUHU216HW,2013-03-06 09:10:00,
2013-03-06 04:15:00,36.7,24.2,29.59,SSW,203,4.9,7.6,60,0.00,,,0.00,WUHU216HW,2013-03-06 09:15:00,
2013-03-06 04:20:00,36.7,24.2,29.60,WSW,248,4.7,11.4,60,0.00,,,0.00,WUHU216HW,2013-03-06 09:20:00,
2013-03-06 04:25:00,36.9,24.4,29.60,WSW,248,1.1,11.4,60,0.00,,,0.00,WUHU216HW,2013-03-06 09:25:00,
2013-03-06 04:30:00,36.9,24.4,29.60,WNW,293,2.2,9.8,60,0.00,,,0.00,WUHU216HW,2013-03-06 09:30:00,
2013-03-06 04:35:00,36.7,24.2,29.60,WSW,248,5.4,9.8,60,0.00,,,0.00,WUHU216HW,2013-03-06 09:35:00,
2013-03-06 04:40:00,36.5,24.0,29.60,SW,225,4.7,8.3,60,0.00,,,0.00,WUHU216HW,2013-03-06 09:40:00,
2013-03-06 04:45:00,36.4,23.9,29.61,NNW,338,4.9,8.1,60,0.00,,,0.00,WUHU216HW,2013-03-06 09:45:00,
2013-03-06 04:50:00,36.2,24.0,29.62,WNW,293,1.1,7.8,61,0.00,,,0.00,WUHU216HW,2013-03-06 09:50:00,
2013-03-06 04:55:00,36.2,23.7,29.61,WNW,293,7.6,8.5,60,0.00,,,0.00,WUHU216HW,2013-03-06 09:55:00,
2013-03-06 05:00:00,36.0,23.6,29.61,West,270,4.0,8.5,60,0.00,,,0.00,WUHU216HW,2013-03-06 10:00:00,
2013-03-06 05:05:00,36.0,23.1,29.61,SW,225,3.4,8.1,59,0.00,,,0.00,WUHU216HW,2013-03-06 10:05:00,
2013-03-06 05:10:00,35.8,23.0,29.62,NW,315,6.7,9.6,59,0.00,,,0.00,WUHU216HW,2013-03-06 10:10:00,
2013-03-06 05:15:00,35.6,22.8,29.62,SW,225,3.6,9.6,59,0.00,,,0.00,WUHU216HW,2013-03-06 10:15:00,
2013-03-06 05:20:00,35.6,22.8,29.62,WNW,293,3.6,7.4,59,0.00,,,0.00,WUHU216HW,2013-03-06 10:20:00,
2013-03-06 05:25:00,35.5,22.6,29.63,West,270,4.3,6.9,59,0.00,,,0.00,WUHU216HW,2013-03-06 10:25:00,
2013-03-06 05:30:00,35.5,22.6,29.63,WNW,293,3.4,6.9,59,0.00,,,0.00,WUHU216HW,2013-03-06 10:30:00,
2013-03-06 05:35:00,35.3,22.9,29.63,WSW,248,2.2,5.1,60,0.00,,,0.00,WUHU216HW,2013-03-06 10:35:00,
2013-03-06 05:40:00,34.9,22.5,29.62,SW,225,3.6,5.6,60,0.00,,,0.00,WUHU216HW,2013-03-06 10:40:00,
2013-03-06 05:45:00,34.9,22.1,29.63,WSW,248,1.8,5.6,59,0.00,,,0.00,WUHU216HW,2013-03-06 10:45:00,
2013-03-06 05:50:00,34.6,22.1,29.63,SW,225,2.5,4.0,60,0.00,,,0.00,WUHU216HW,2013-03-06 10:50:00,
2013-03-06 05:55:00,34.2,21.8,29.63,WNW,293,2.0,4.3,60,0.00,,,0.00,WUHU216HW,2013-03-06 10:55:00,
2013-03-06 06:00:00,34.2,21.8,29.64,SW,225,5.4,5.4,60,0.00,,,0.00,WUHU216HW,2013-03-06 11:00:00,
2013-03-06 06:05:00,34.2,21.8,29.64,WSW,248,3.4,5.6,60,0.00,,,0.00,WUHU216HW,2013-03-06 11:05:00,
2013-03-06 06:10:00,34.2,21.8,29.64,West,270,3.6,6.9,60,0.00,,,0.00,WUHU216HW,2013-03-06 11:10:00,
2013-03-06 06:15:00,34.0,21.6,29.65,SW,225,2.5,6.9,60,0.00,,,0.00,WUHU216HW,2013-03-06 11:15:00,
2013-03-06 06:20:00,33.8,21.4,29.65,SW,225,3.6,6.3,60,0.00,,,0.00,WUHU216HW,2013-03-06 11:20:00,
2013-03-06 06:25:00,33.7,21.2,29.65,SSW,203,2.5,7.2,60,0.00,,,0.00,WUHU216HW,2013-03-06 11:25:00,
2013-03-06 06:30:00,33.5,21.1,29.65,SW,225,3.6,7.2,60,0.00,,,0.00,WUHU216HW,2013-03-06 11:30:00,
2013-03-06 06:35:00,33.3,21.0,29.66,WSW,248,1.1,4.9,60,0.00,,,0.00,WUHU216HW,2013-03-06 11:35:00,
2013-03-06 06:40:00,33.1,20.8,29.66,West,270,4.3,4.3,60,0.00,,,0.00,WUHU216HW,2013-03-06 11:40:00,
2013-03-06 06:45:00,32.9,20.6,29.66,WNW,293,2.9,6.3,60,0.00,,,0.00,WUHU216HW,2013-03-06 11:45:00,
2013-03-06 06:50:00,32.8,20.4,29.66,SW,225,3.8,6.3,60,0.00,,,0.00,WUHU216HW,2013-03-06 11:50:00,
2013-03-06 06:55:00,32.8,20.0,29.66,WSW,248,3.4,4.7,59,0.00,,,0.00,WUHU216HW,2013-03-06 11:55:00,
2013-03-06 07:00:00,32.8,20.0,29.66,West,270,1.8,5.1,59,0.00,,,0.00,WUHU216HW,2013-03-06 12:00:00,
2013-03-06 07:05:00,32.8,20.0,29.66,WSW,248,4.0,5.1,59,0.00,,,0.00,WUHU216HW,2013-03-06 12:05:00,
2013-03-06 07:10:00,32.8,20.0,29.66,SW,225,2.5,4.7,59,0.00,,,0.00,WUHU216HW,2013-03-06 12:10:00,
2013-03-06 07:15:00,32.8,20.0,29.67,WSW,248,3.6,4.7,59,0.00,,,0.00,WUHU216HW,2013-03-06 12:15:00,
2013-03-06 07:20:00,32.8,20.0,29.67,WNW,293,1.8,4.3,59,0.00,,,0.00,WUHU216HW,2013-03-06 12:20:00,
2013-03-06 07:25:00,32.8,20.0,29.67,WSW,248,3.4,4.7,59,0.00,,,0.00,WUHU216HW,2013-03-06 12:25:00,
2013-03-06 07:30:00,32.9,20.2,29.67,WSW,248,2.7,4.7,59,0.00,,,0.00,WUHU216HW,2013-03-06 12:30:00,
2013-03-06 07:35:00,33.1,20.3,29.67,WSW,248,2.2,4.9,59,0.00,,,0.00,WUHU216HW,2013-03-06 12:35:00,
2013-03-06 07:40:00,33.1,20.3,29.67,SW,225,2.0,4.9,59,0.00,,,0.00,WUHU216HW,2013-03-06 12:40:00,
2013-03-06 07:45:00,33.3,20.5,29.67,WNW,293,3.6,6.3,59,0.00,,,0.00,WUHU216HW,2013-03-06 12:45:00,
2013-03-06 07:50:00,33.5,20.7,29.67,WNW,293,2.2,6.3,59,0.00,,,0.00,WUHU216HW,2013-03-06 12:50:00,
2013-03-06 07:55:00,33.7,20.8,29.67,West,270,6.3,6.3,59,0.00,,,0.00,WUHU216HW,2013-03-06 12:55:00,
2013-03-06 08:00:00,33.8,21.0,29.68,WSW,248,4.0,6.3,59,0.00,,,0.00,WUHU216HW,2013-03-06 13:00:00,
2013-03-06 08:05:00,34.0,20.7,29.68,SW,225,3.4,6.3,58,0.00,,,0.00,WUHU216HW,2013-03-06 13:05:00,
2013-03-06 08:10:00,34.4,21.1,29.68,WSW,248,2.7,4.9,58,0.00,,,0.00,WUHU216HW,2013-03-06 13:10:00,
2013-03-06 08:15:00,34.6,21.2,29.68,SW,225,2.5,5.8,58,0.00,,,0.00,WUHU216HW,2013-03-06 13:15:00,
2013-03-06 08:20:00,34.9,21.6,29.69,West,270,1.8,5.8,58,0.00,,,0.00,WUHU216HW,2013-03-06 13:20:00,
2013-03-06 08:25:00,35.1,21.8,29.69,WSW,248,1.8,5.8,58,0.00,,,0.00,WUHU216HW,2013-03-06 13:25:00,
2013-03-06 08:30:00,35.3,22.0,29.69,West,270,2.9,5.6,58,0.00,,,0.00,WUHU216HW,2013-03-06 13:30:00,
2013-03-06 08:35:00,35.5,22.1,29.69,WNW,293,0.4,5.1,58,0.00,,,0.00,WUHU216HW,2013-03-06 13:35:00,
2013-03-06 08:40:00,35.6,22.0,29.70,WSW,248,5.1,7.6,57,0.00,,,0.00,WUHU216HW,2013-03-06 13:40:00,
2013-03-06 08:45:00,36.0,22.2,29.70,West,270,2.0,7.6,57,0.00,,,0.00,WUHU216HW,2013-03-06 13:45:00,
2013-03-06 08:50:00,36.4,22.1,29.70,West,270,5.4,5.4,56,0.00,,,0.00,WUHU216HW,2013-03-06 13:50:00,
2013-03-06 08:55:00,36.5,21.9,29.70,WSW,248,1.1,5.4,55,0.00,,,0.00,WUHU216HW,2013-03-06 13:55:00,
2013-03-06 09:00:00,36.9,21.8,29.70,WSW,248,4.7,5.4,54,0.00,,,0.00,WUHU216HW,2013-03-06 14:00:00,
2013-03-06 09:05:00,37.4,22.2,29.70,NNE,23,0.4,4.9,54,0.00,,,0.00,WUHU216HW,2013-03-06 14:05:00,
2013-03-06 09:10:00,38.0,22.3,29.71,NNW,338,0.4,4.0,53,0.00,,,0.00,WUHU216HW,2013-03-06 14:10:00,
2013-03-06 09:15:00,38.5,22.3,29.71,WSW,248,2.9,4.3,52,0.00,,,0.00,WUHU216HW,2013-03-06 14:15:00,
2013-03-06 09:20:00,38.9,23.1,29.71,NE,45,1.1,4.3,53,0.00,,,0.00,WUHU216HW,2013-03-06 14:20:00,
2013-03-06 09:25:00,38.9,22.7,29.72,WSW,248,1.1,4.7,52,0.00,,,0.00,WUHU216HW,2013-03-06 14:25:00,
2013-03-06 09:30:00,39.1,22.9,29.72,WSW,248,0.2,4.7,52,0.00,,,0.00,WUHU216HW,2013-03-06 14:30:00,
2013-03-06 09:35:00,39.1,22.4,29.72,NNE,23,3.4,4.0,51,0.00,,,0.00,WUHU216HW,2013-03-06 14:35:00,
2013-03-06 09:40:00,39.2,22.6,29.72,NNW,338,1.3,4.3,51,0.00,,,0.00,WUHU216HW,2013-03-06 14:40:00,
2013-03-06 09:45:00,39.4,23.1,29.72,NNE,23,0.4,4.3,52,0.00,,,0.00,WUHU216HW,2013-03-06 14:45:00,
2013-03-06 09:50:00,39.4,22.3,29.72,WSW,248,2.5,6.7,50,0.00,,,0.00,WUHU216HW,2013-03-06 14:50:00,
2013-03-06 09:55:00,39.4,22.3,29.72,NNW,338,3.4,6.7,50,0.00,,,0.00,WUHU216HW,2013-03-06 14:55:00,
2013-03-06 10:00:00,39.4,22.3,29.74,NNW,338,2.2,5.4,50,0.00,,,0.00,WUHU216HW,2013-03-06 15:00:00,
2013-03-06 10:05:00,39.6,22.5,29.74,NW,315,1.1,5.1,50,0.00,,,0.00,WUHU216HW,2013-03-06 15:05:00,
2013-03-06 10:10:00,39.8,22.6,29.74,NW,315,1.1,5.1,50,0.00,,,0.00,WUHU216HW,2013-03-06 15:10:00,
2013-03-06 10:15:00,40.0,22.8,29.74,WSW,248,4.9,4.9,50,0.00,,,0.00,WUHU216HW,2013-03-06 15:15:00,
2013-03-06 10:20:00,40.1,22.4,29.75,NNE,23,2.9,5.8,49,0.00,,,0.00,WUHU216HW,2013-03-06 15:20:00,
2013-03-06 10:25:00,40.5,22.8,29.75,NE,45,2.5,6.7,49,0.00,,,0.00,WUHU216HW,2013-03-06 15:25:00,
2013-03-06 10:30:00,40.7,23.0,29.75,SW,225,3.4,7.4,49,0.00,,,0.00,WUHU216HW,2013-03-06 15:30:00,
2013-03-06 10:35:00,40.9,23.0,29.75,WNW,293,4.3,7.4,49,0.00,,,0.00,WUHU216HW,2013-03-06 15:35:00,
2013-03-06 10:40:00,40.9,23.0,29.75,NW,315,3.8,7.6,49,0.00,,,0.00,WUHU216HW,2013-03-06 15:40:00,
2013-03-06 10:45:00,40.9,23.0,29.75,SW,225,6.3,8.1,49,0.00,,,0.00,WUHU216HW,2013-03-06 15:45:00,
2013-03-06 10:50:00,40.9,23.0,29.75,SW,225,1.3,8.3,49,0.00,,,0.00,WUHU216HW,2013-03-06 15:50:00,
2013-03-06 10:55:00,41.2,23.4,29.75,WSW,248,4.9,8.3,49,0.00,,,0.00,WUHU216HW,2013-03-06 15:55:00,
2013-03-06 11:00:00,41.2,23.4,29.75,WSW,248,4.0,7.4,49,0.00,,,0.00,WUHU216HW,2013-03-06 16:00:00,
2013-03-06 11:05:00,41.4,23.6,29.75,West,270,4.7,7.8,49,0.00,,,0.00,WUHU216HW,2013-03-06 16:05:00,
2013-03-06 11:10:00,41.8,23.9,29.75,East,90,1.1,9.4,49,0.00,,,0.00,WUHU216HW,2013-03-06 16:10:00,
2013-03-06 11:15:00,42.1,24.3,29.75,NNW,338,1.8,9.4,49,0.00,,,0.00,WUHU216HW,2013-03-06 16:15:00,
2013-03-06 11:20:00,42.5,24.1,29.75,WSW,248,7.6,11.0,48,0.00,,,0.00,WUHU216HW,2013-03-06 16:20:00,
2013-03-06 11:25:00,42.7,24.8,29.76,NW,315,0.9,11.0,49,0.00,,,0.00,WUHU216HW,2013-03-06 16:25:00,
2013-03-06 11:30:00,43.4,25.5,29.76,WSW,248,2.9,6.3,49,0.00,,,0.00,WUHU216HW,2013-03-06 16:30:00,
2013-03-06 11:35:00,43.6,25.1,29.76,WSW,248,4.3,8.1,48,0.00,,,0.00,WUHU216HW,2013-03-06 16:35:00,
2013-03-06 11:40:00,43.9,24.9,29.76,SSW,203,2.7,8.1,47,0.00,,,0.00,WUHU216HW,2013-03-06 16:40:00,
2013-03-06 11:45:00,44.3,25.2,29.76,SW,225,5.8,7.8,47,0.00,,,0.00,WUHU216HW,2013-03-06 16:45:00,
2013-03-06 11:50:00,44.8,23.6,29.76,NNW,338,7.6,11.9,43,0.00,,,0.00,WUHU216HW,2013-03-06 16:50:00,
2013-03-06 11:55:00,45.0,23.8,29.77,WSW,248,6.3,11.9,43,0.00,,,0.00,WUHU216HW,2013-03-06 16:55:00,
2013-03-06 12:00:00,45.4,24.0,29.77,West,270,9.8,11.4,43,0.00,,,0.00,WUHU216HW,2013-03-06 17:00:00,
2013-03-06 12:05:00,45.2,23.9,29.77,NNE,23,1.8,11.4,43,0.00,,,0.00,WUHU216HW,2013-03-06 17:05:00,
2013-03-06 12:10:00,45.4,24.6,29.77,NNW,338,2.5,6.9,44,0.00,,,0.00,WUHU216HW,2013-03-06 17:10:00,
2013-03-06 12:15:00,45.5,24.8,29.77,NE,45,4.0,6.9,44,0.00,,,0.00,WUHU216HW,2013-03-06 17:15:00,
2013-03-06 12:20:00,45.4,24.6,29.77,NNE,23,3.8,9.6,44,0.00,,,0.00,WUHU216HW,2013-03-06 17:20:00,
2013-03-06 12:25:00,45.0,23.8,29.77,NNE,23,6.9,13.9,43,0.00,,,0.00,WUHU216HW,2013-03-06 17:25:00,
2013-03-06 12:30:00,45.0,24.9,29.77,West,270,6.0,13.9,45,0.00,,,0.00,WUHU216HW,2013-03-06 17:30:00,
2013-03-06 12:35:00,45.0,24.3,29.77,NE,45,8.7,15.0,44,0.00,,,0.00,WUHU216HW,2013-03-06 17:35:00,
2013-03-06 12:40:00,45.2,24.9,29.77,WSW,248,1.8,15.0,45,0.00,,,0.00,WUHU216HW,2013-03-06 17:40:00,
2013-03-06 12:45:00,45.9,26.2,29.78,NNW,338,6.3,9.6,46,0.00,,,0.00,WUHU216HW,2013-03-06 17:45:00,
2013-03-06 12:50:00,45.7,25.5,29.78,North,0,6.3,12.5,45,0.00,,,0.00,WUHU216HW,2013-03-06 17:50:00,
2013-03-06 12:55:00,45.4,25.7,29.77,NNE,23,8.9,15.7,46,0.00,,,0.00,WUHU216HW,2013-03-06 17:55:00,
2013-03-06 13:00:00,45.2,26.0,29.77,NNW,338,7.6,15.7,47,0.00,,,0.00,WUHU216HW,2013-03-06 18:00:00,
2013-03-06 13:05:00,45.0,25.9,29.77,NNE,23,15.2,15.2,47,0.00,,,0.00,WUHU216HW,2013-03-06 18:05:00,
2013-03-06 13:10:00,44.8,25.8,29.77,NW,315,7.6,15.2,47,0.00,,,0.00,WUHU216HW,2013-03-06 18:10:00,
2013-03-06 13:15:00,44.5,25.4,29.78,North,0,6.0,15.2,47,0.00,,,0.00,WUHU216HW,2013-03-06 18:15:00,
2013-03-06 13:20:00,44.1,25.1,29.79,WNW,293,8.3,15.0,47,0.00,,,0.00,WUHU216HW,2013-03-06 18:20:00,
2013-03-06 13:25:00,43.7,25.3,29.79,NNE,23,7.8,15.0,48,0.00,,,0.00,WUHU216HW,2013-03-06 18:25:00,
2013-03-06 13:30:00,44.5,25.9,29.78,North,0,5.8,14.1,48,0.00,,,0.00,WUHU216HW,2013-03-06 18:30:00,
2013-03-06 13:35:00,45.0,27.6,29.78,SW,225,2.7,11.4,50,0.00,,,0.00,WUHU216HW,2013-03-06 18:35:00,
2013-03-06 13:40:00,45.4,26.7,29.78,North,0,2.5,12.5,48,0.00,,,0.00,WUHU216HW,2013-03-06 18:40:00,
2013-03-06 13:45:00,44.5,25.9,29.79,West,270,10.1,12.5,48,0.00,,,0.00,WUHU216HW,2013-03-06 18:45:00,
2013-03-06 13:50:00,43.4,25.5,29.79,WNW,293,6.5,12.1,49,0.00,,,0.00,WUHU216HW,2013-03-06 18:50:00,
2013-03-06 13:55:00,43.2,26.3,29.80,NNW,338,3.8,10.7,51,0.00,,,0.00,WUHU216HW,2013-03-06 18:55:00,
2013-03-06 14:00:00,43.7,26.4,29.78,West,270,5.4,10.5,50,0.00,,,0.00,WUHU216HW,2013-03-06 19:00:00,
2013-03-06 14:05:00,44.5,26.5,29.78,NW,315,6.7,11.6,49,0.00,,,0.00,WUHU216HW,2013-03-06 19:05:00,
2013-03-06 14:10:00,44.8,26.3,29.81,NW,315,9.8,11.6,48,0.00,,,0.00,WUHU216HW,2013-03-06 19:10:00,
2013-03-06 14:15:00,43.7,25.8,29.81,West,270,2.5,11.4,49,0.00,,,0.00,WUHU216HW,2013-03-06 19:15:00,
2013-03-06 14:20:00,43.6,26.2,29.80,NW,315,4.7,15.4,50,0.00,,,0.00,WUHU216HW,2013-03-06 19:20:00,
2013-03-06 14:25:00,44.3,26.8,29.79,SSW,203,11.2,15.4,50,0.00,,,0.00,WUHU216HW,2013-03-06 19:25:00,
2013-03-06 14:30:00,44.3,26.3,29.80,North,0,6.9,11.6,49,0.00,,,0.00,WUHU216HW,2013-03-06 19:30:00,
2013-03-06 14:35:00,44.5,26.5,29.81,NW,315,4.0,11.6,49,0.00,,,0.00,WUHU216HW,2013-03-06 19:35:00,
2013-03-06 14:40:00,45.0,26.5,29.81,West,270,9.2,9.8,48,0.00,,,0.00,WUHU216HW,2013-03-06 19:40:00,
2013-03-06 14:45:00,44.6,26.1,29.81,NNE,23,2.9,10.7,48,0.00,,,0.00,WUHU216HW,2013-03-06 19:45:00,
2013-03-06 14:50:00,44.6,26.1,29.81,NNW,338,4.7,10.7,48,0.00,,,0.00,WUHU216HW,2013-03-06 19:50:00,
2013-03-06 14:55:00,44.5,26.5,29.82,NNW,338,5.1,9.8,49,0.00,,,0.00,WUHU216HW,2013-03-06 19:55:00,
2013-03-06 15:00:00,45.0,27.0,29.82,SSE,158,3.4,9.8,49,0.00,,,0.00,WUHU216HW,2013-03-06 20:00:00,
2013-03-06 15:05:00,45.2,27.1,29.82,North,0,6.3,9.8,49,0.00,,,0.00,WUHU216HW,2013-03-06 20:05:00,
2013-03-06 15:10:00,45.0,27.0,29.82,North,0,4.7,9.8,49,0.00,,,0.00,WUHU216HW,2013-03-06 20:10:00,
2013-03-06 15:15:00,44.6,26.6,29.82,NNW,338,4.0,9.2,49,0.00,,,0.00,WUHU216HW,2013-03-06 20:15:00,
2013-03-06 15:20:00,44.6,26.6,29.83,West,270,6.3,8.1,49,0.00,,,0.00,WUHU216HW,2013-03-06 20:20:00,
2013-03-06 15:25:00,45.0,27.0,29.83,NE,45,3.6,8.7,49,0.00,,,0.00,WUHU216HW,2013-03-06 20:25:00,
2013-03-06 15:30:00,45.0,27.0,29.83,North,0,4.0,12.5,49,0.00,,,0.00,WUHU216HW,2013-03-06 20:30:00,
2013-03-06 15:35:00,45.0,26.5,29.83,WNW,293,7.6,14.5,48,0.00,,,0.00,WUHU216HW,2013-03-06 20:35:00,
2013-03-06 15:40:00,44.3,26.8,29.83,WSW,248,4.9,14.5,50,0.00,,,0.00,WUHU216HW,2013-03-06 20:40:00,
2013-03-06 15:45:00,44.3,26.8,29.83,North,0,4.7,11.9,50,0.00,,,0.00,WUHU216HW,2013-03-06 20:45:00,
2013-03-06 15:50:00,44.1,26.7,29.83,WSW,248,4.7,10.5,50,0.00,,,0.00,WUHU216HW,2013-03-06 20:50:00,
2013-03-06 15:55:00,44.1,26.7,29.83,SW,225,3.1,9.8,50,0.00,,,0.00,WUHU216HW,2013-03-06 20:55:00,
2013-03-06 16:00:00,44.3,27.3,29.83,ESE,113,5.6,7.6,51,0.00,,,0.00,WUHU216HW,2013-03-06 21:00:00,
2013-03-06 16:05:00,44.1,27.2,29.84,NW,315,3.4,12.3,51,0.00,,,0.00,WUHU216HW,2013-03-06 21:05:00,
2013-03-06 16:10:00,44.1,26.7,29.83,WSW,248,4.5,12.5,50,0.00,,,0.00,WUHU216HW,2013-03-06 21:10:00,
2013-03-06 16:15:00,44.1,27.2,29.84,West,270,2.5,12.5,51,0.00,,,0.00,WUHU216HW,2013-03-06 21:15:00,
2013-03-06 16:20:00,44.3,27.3,29.84,West,270,11.0,11.0,51,0.00,,,0.00,WUHU216HW,2013-03-06 21:20:00,
2013-03-06 16:25:00,43.9,27.5,29.85,NW,315,7.6,11.0,52,0.00,,,0.00,WUHU216HW,2013-03-06 21:25:00,
2013-03-06 16:30:00,43.9,27.5,29.85,North,0,1.8,11.0,52,0.00,,,0.00,WUHU216HW,2013-03-06 21:30:00,
2013-03-06 16:35:00,43.9,27.0,29.85,NNW,338,2.9,11.2,51,0.00,,,0.00,WUHU216HW,2013-03-06 21:35:00,
2013-03-06 16:40:00,43.6,27.1,29.85,NE,45,0.9,11.2,52,0.00,,,0.00,WUHU216HW,2013-03-06 21:40:00,
2013-03-06 16:45:00,43.6,27.1,29.86,NNE,23,2.7,11.2,52,0.00,,,0.00,WUHU216HW,2013-03-06 21:45:00,
2013-03-06 16:50:00,43.2,26.7,29.86,NE,45,4.7,10.7,52,0.00,,,0.00,WUHU216HW,2013-03-06 21:50:00,
2013-03-06 16:55:00,42.7,26.6,29.86,North,0,3.4,10.5,53,0.00,,,0.00,WUHU216HW,2013-03-06 21:55:00,
2013-03-06 17:00:00,42.5,26.6,29.87,SSW,203,4.0,10.5,53,0.00,,,0.00,WUHU216HW,2013-03-06 22:00:00,
2013-03-06 17:05:00,42.1,26.2,29.87,East,90,3.6,9.4,53,0.00,,,0.00,WUHU216HW,2013-03-06 22:05:00,
2013-03-06 17:10:00,41.9,26.5,29.88,NNE,23,4.9,9.4,54,0.00,,,0.00,WUHU216HW,2013-03-06 22:10:00,
2013-03-06 17:15:00,41.9,26.9,29.88,SSW,203,4.0,6.7,55,0.00,,,0.00,WUHU216HW,2013-03-06 22:15:00,
2013-03-06 17:20:00,42.1,26.7,29.88,ENE,68,4.7,7.8,54,0.00,,,0.00,WUHU216HW,2013-03-06 22:20:00,
2013-03-06 17:25:00,42.1,27.0,29.88,NE,45,4.0,7.8,55,0.00,,,0.00,WUHU216HW,2013-03-06 22:25:00,
2013-03-06 17:30:00,41.8,26.7,29.88,NNW,338,6.9,7.4,55,0.00,,,0.00,WUHU216HW,2013-03-06 22:30:00,
2013-03-06 17:35:00,41.4,26.4,29.88,WNW,293,4.7,7.6,55,0.00,,,0.00,WUHU216HW,2013-03-06 22:35:00,
2013-03-06 17:40:00,41.4,26.8,29.89,NNW,338,2.0,9.4,56,0.00,,,0.00,WUHU216HW,2013-03-06 22:40:00,
2013-03-06 17:45:00,41.2,26.7,29.89,ESE,113,2.5,9.4,56,0.00,,,0.00,WUHU216HW,2013-03-06 22:45:00,
2013-03-06 17:50:00,41.0,26.5,29.90,NW,315,2.5,8.5,56,0.00,,,0.00,WUHU216HW,2013-03-06 22:50:00,
2013-03-06 17:55:00,40.7,26.6,29.90,NNW,338,2.5,8.5,57,0.00,,,0.00,WUHU216HW,2013-03-06 22:55:00,
2013-03-06 18:00:00,40.7,26.6,29.90,West,270,1.8,5.4,57,0.00,,,0.00,WUHU216HW,2013-03-06 23:00:00,
2013-03-06 18:05:00,40.3,26.2,29.91,West,270,2.2,5.6,57,0.00,,,0.00,WUHU216HW,2013-03-06 23:05:00,
2013-03-06 18:10:00,40.1,26.0,29.91,North,0,1.1,5.8,57,0.00,,,0.00,WUHU216HW,2013-03-06 23:10:00,
2013-03-06 18:15:00,39.8,26.1,29.91,WSW,248,3.8,5.8,58,0.00,,,0.00,WUHU216HW,2013-03-06 23:15:00,
2013-03-06 18:20:00,39.4,25.7,29.91,NW,315,0.7,6.5,58,0.00,,,0.00,WUHU216HW,2013-03-06 23:20:00,
2013-03-06 18:25:00,39.2,26.0,29.91,SW,225,0.9,6.5,59,0.00,,,0.00,WUHU216HW,2013-03-06 23:25:00,
2013-03-06 18:30:00,38.9,26.1,29.92,West,270,3.4,5.4,60,0.00,,,0.00,WUHU216HW,2013-03-06 23:30:00,
2013-03-06 18:35:00,38.5,25.4,29.92,SW,225,2.5,5.4,59,0.00,,,0.00,WUHU216HW,2013-03-06 23:35:00,
2013-03-06 18:40:00,38.3,25.7,29.93,NW,315,2.5,3.4,60,0.00,,,0.00,WUHU216HW,2013-03-06 23:40:00,
2013-03-06 18:45:00,38.0,25.3,29.92,North,0,1.6,3.1,60,0.00,,,0.00,WUHU216HW,2013-03-06 23:45:00,
2013-03-06 18:50:00,37.8,25.6,29.93,North,0,1.6,5.4,61,0.00,,,0.00,WUHU216HW,2013-03-06 23:50:00,
2013-03-06 18:55:00,37.4,24.8,29.93,East,90,1.8,5.4,60,0.00,,,0.00,WUHU216HW,2013-03-06 23:55:00,
2013-03-06 19:00:00,37.3,25.0,29.93,NW,315,1.1,2.7,61,0.00,,,0.00,WUHU216HW,2013-03-07 00:00:00,
2013-03-06 19:05:00,37.1,24.9,29.92,West,270,0.9,2.5,61,0.00,,,0.00,WUHU216HW,2013-03-07 00:05:00,
2013-03-06 19:10:00,37.1,24.9,29.93,NW,315,0.4,2.5,61,0.00,,,0.00,WUHU216HW,2013-03-07 00:10:00,
2013-03-06 19:15:00,36.7,24.6,29.93,NNE,23,1.8,2.5,61,0.00,,,0.00,WUHU216HW,2013-03-07 00:15:00,
2013-03-06 19:20:00,36.5,24.8,29.93,NW,315,0.2,2.5,62,0.00,,,0.00,WUHU216HW,2013-03-07 00:20:00,
2013-03-06 19:25:00,36.4,24.6,29.93,WNW,293,0.2,2.0,62,0.00,,,0.00,WUHU216HW,2013-03-07 00:25:00,
2013-03-06 19:30:00,36.2,24.5,29.94,WSW,248,0.4,1.6,62,0.00,,,0.00,WUHU216HW,2013-03-07 00:30:00,
2013-03-06 19:35:00,35.8,24.1,29.94,SW,225,0.2,1.1,62,0.00,,,0.00,WUHU216HW,2013-03-07 00:35:00,
2013-03-06 19:40:00,35.6,23.9,29.94,West,270,1.1,1.1,62,0.00,,,0.00,WUHU216HW,2013-03-07 00:40:00,
2013-03-06 19:45:00,35.6,24.3,29.95,WSW,248,2.0,2.9,63,0.00,,,0.00,WUHU216HW,2013-03-07 00:45:00,
2013-03-06 19:50:00,35.6,24.7,29.94,WNW,293,0.4,4.5,64,0.00,,,0.00,WUHU216HW,2013-03-07 00:50:00,
2013-03-06 19:55:00,35.6,25.0,29.94,NW,315,0.4,4.5,65,0.00,,,0.00,WUHU216HW,2013-03-07 00:55:00,
2013-03-06 20:00:00,35.5,24.8,29.94,WSW,248,2.7,2.7,65,0.00,,,0.00,WUHU216HW,2013-03-07 01:00:00,
2013-03-06 20:05:00,35.5,25.2,29.94,NW,315,1.1,2.9,66,0.00,,,0.00,WUHU216HW,2013-03-07 01:05:00,
2013-03-06 20:10:00,35.3,25.0,29.93,NW,315,1.3,2.9,66,0.00,,,0.00,WUHU216HW,2013-03-07 01:10:00,
2013-03-06 20:15:00,35.1,24.5,29.93,WNW,293,0.4,2.9,65,0.00,,,0.00,WUHU216HW,2013-03-07 01:15:00,
2013-03-06 20:20:00,35.1,24.5,29.93,NNW,338,1.1,2.9,65,0.00,,,0.00,WUHU216HW,2013-03-07 01:20:00,
2013-03-06 20:25:00,34.9,24.7,29.93,WNW,293,0.7,2.5,66,0.00,,,0.00,WUHU216HW,2013-03-07 01:25:00,
2013-03-06 20:30:00,34.7,24.8,29.93,ENE,68,0.2,2.2,67,0.00,,,0.00,WUHU216HW,2013-03-07 01:30:00,
2013-03-06 20:35:00,34.7,25.2,29.93,North,0,0.7,2.5,68,0.00,,,0.00,WUHU216HW,2013-03-07 01:35:00,
2013-03-06 20:40:00,34.6,24.7,29.94,NE,45,0.4,2.5,67,0.00,,,0.00,WUHU216HW,2013-03-07 01:40:00,
2013-03-06 20:45:00,34.4,24.5,29.94,SE,135,0.4,1.6,67,0.00,,,0.00,WUHU216HW,2013-03-07 01:45:00,
2013-03-06 20:50:00,34.2,24.3,29.93,East,90,0.4,1.1,67,0.00,,,0.00,WUHU216HW,2013-03-07 01:50:00,
2013-03-06 20:55:00,33.8,23.9,29.93,SW,225,1.1,1.3,67,0.00,,,0.00,WUHU216HW,2013-03-07 01:55:00,
2013-03-06 21:00:00,33.7,24.1,29.94,SSW,203,1.3,1.8,68,0.00,,,0.00,WUHU216HW,2013-03-07 02:00:00,
2013-03-06 21:05:00,33.7,24.1,29.94,SSW,203,1.3,1.8,68,0.00,,,0.00,WUHU216HW,2013-03-07 02:05:00,
2013-03-06 21:10:00,33.5,23.6,29.94,SSW,203,0.7,1.8,67,0.00,,,0.00,WUHU216HW,2013-03-07 02:10:00,
2013-03-06 21:15:00,33.1,23.3,29.94,SSW,203,0.7,1.3,67,0.00,,,0.00,WUHU216HW,2013-03-07 02:15:00,
2013-03-06 21:20:00,32.9,23.5,29.94,SSW,203,0.4,1.1,68,0.00,,,0.00,WUHU216HW,2013-03-07 02:20:00,
2013-03-06 21:25:00,32.6,23.1,29.95,SSW,203,0.0,1.1,68,0.00,,,0.00,WUHU216HW,2013-03-07 02:25:00,
2013-03-06 21:30:00,32.2,22.9,29.95,SSW,203,0.0,0.7,68,0.00,,,0.00,WUHU216HW,2013-03-07 02:30:00,
2013-03-06 21:35:00,31.9,22.5,29.95,SSE,158,0.0,1.1,68,0.00,,,0.00,WUHU216HW,2013-03-07 02:35:00,
2013-03-06 21:40:00,31.7,22.7,29.95,SSW,203,0.2,1.1,69,0.00,,,0.00,WUHU216HW,2013-03-07 02:40:00,
2013-03-06 21:45:00,31.9,22.9,29.95,SSW,203,0.4,1.1,69,0.00,,,0.00,WUHU216HW,2013-03-07 02:45:00,
2013-03-06 21:50:00,31.7,23.0,29.95,WSW,248,0.2,1.3,70,0.00,,,0.00,WUHU216HW,2013-03-07 02:50:00,
2013-03-06 21:55:00,31.5,22.9,29.95,WNW,293,1.8,1.8,70,0.00,,,0.00,WUHU216HW,2013-03-07 02:55:00,
2013-03-06 22:00:00,31.7,23.4,29.95,West,270,0.9,2.7,71,0.00,,,0.00,WUHU216HW,2013-03-07 03:00:00,
2013-03-06 22:05:00,31.7,23.4,29.95,SW,225,1.6,2.7,71,0.00,,,0.00,WUHU216HW,2013-03-07 03:05:00,
2013-03-06 22:10:00,32.0,23.8,29.96,WNW,293,0.4,2.5,71,0.00,,,0.00,WUHU216HW,2013-03-07 03:10:00,
2013-03-06 22:15:00,32.0,23.8,29.96,WSW,248,0.4,2.0,71,0.00,,,0.00,WUHU216HW,2013-03-07 03:15:00,
2013-03-06 22:20:00,32.0,23.8,29.96,WSW,248,0.0,1.8,71,0.00,,,0.00,WUHU216HW,2013-03-07 03:20:00,
2013-03-06 22:25:00,31.9,23.6,29.96,WSW,248,0.7,1.3,71,0.00,,,0.00,WUHU216HW,2013-03-07 03:25:00,
2013-03-06 22:30:00,31.7,23.4,29.96,WSW,248,0.0,0.9,71,0.00,,,0.00,WUHU216HW,2013-03-07 03:30:00,
2013-03-06 22:35:00,31.3,23.3,29.96,West,270,0.0,0.9,72,0.00,,,0.00,WUHU216HW,2013-03-07 03:35:00,
2013-03-06 22:40:00,31.1,23.1,29.96,WSW,248,0.0,0.7,72,0.00,,,0.00,WUHU216HW,2013-03-07 03:40:00,
2013-03-06 22:45:00,31.1,23.1,29.96,ESE,113,0.4,0.9,72,0.00,,,0.00,WUHU216HW,2013-03-07 03:45:00,
2013-03-06 22:50:00,31.0,23.0,29.96,SSW,203,1.3,1.3,72,0.00,,,0.00,WUHU216HW,2013-03-07 03:50:00,
2013-03-06 22:55:00,31.0,23.0,29.96,SW,225,0.0,1.3,72,0.00,,,0.00,WUHU216HW,2013-03-07 03:55:00,
2013-03-06 23:01:00,31.0,23.3,29.96,NW,315,0.9,1.3,73,0.00,,,0.00,WUHU216HW,2013-03-07 04:01:00,
2013-03-06 23:06:00,31.1,23.8,29.97,NNE,23,0.2,1.3,74,0.00,,,0.00,WUHU216HW,2013-03-07 04:06:00,
2013-03-06 23:11:00,31.5,24.1,29.97,East,90,1.1,1.3,74,0.00,,,0.00,WUHU216HW,2013-03-07 04:11:00,
2013-03-06 23:16:00,31.9,24.5,29.97,NNW,338,1.1,1.8,74,0.00,,,0.00,WUHU216HW,2013-03-07 04:16:00,
2013-03-06 23:21:00,32.0,24.7,29.97,ENE,68,0.2,1.8,74,0.00,,,0.00,WUHU216HW,2013-03-07 04:21:00,
2013-03-06 23:26:00,32.2,24.6,29.97,NE,45,0.4,1.6,73,0.00,,,0.00,WUHU216HW,2013-03-07 04:26:00,
2013-03-06 23:31:00,32.2,24.6,29.97,NE,45,0.0,1.6,73,0.00,,,0.00,WUHU216HW,2013-03-07 04:31:00,
2013-03-06 23:36:00,32.2,24.6,29.97,NNE,23,0.4,1.3,73,0.00,,,0.00,WUHU216HW,2013-03-07 04:36:00,
2013-03-06 23:41:00,32.0,24.4,29.97,NNW,338,0.0,1.8,73,0.00,,,0.00,WUHU216HW,2013-03-07 04:41:00,
2013-03-06 23:46:00,32.0,24.4,29.97,NNW,338,0.0,1.8,73,0.00,,,0.00,WUHU216HW,2013-03-07 04:46:00,
2013-03-06 23:51:00,32.0,24.4,29.96,NNE,23,0.4,0.9,73,0.00,,,0.00,WUHU216HW,2013-03-07 04:51:00,
2013-03-06 23:56:00,31.9,24.2,29.97,NNE,23,0.0,0.9,73,0.00,,,0.00,WUHU216HW,2013-03-07 04:56:00,